Location: Cosy Dell
(34.2789°N, 117.4537°W)
Time: 21:13:26
(UTC+00:00)

SL-16 R/B - Pass Details

Date: 14 July 2020
Orbit: 840 x 850 km, 71.0° (Epoch: 13 August)

Event Time Altitude Azimuth Distance (km) Brightness Sun altitude
Exits shadow 05:33:21 31° 212° (SSW) 1,429 3.2 -24.7°
Maximum altitude 05:36:07 74° 291° (WNW) 879 2.3 -25.0°
Drops below altitude 10° 05:41:47 10° 17° (NNE) 2,474 5.1 -25.7°
Sets 05:44:16 0° 19° (NNE) 3,415 5.8 -26.0°
